Regional Weather Roundup
Issued by NWS

Home | Current Version | Previous Version | Graphics & Text | Print | Product List | Glossary On
Versions: 1 2 3 4 5 6 7 8 9 10 11 12 13 14 15 16 17 18 19 20 21 22 23 24 25 26 27 28 29 30 31 32 33 34 35 36 37 38 39 40 41 42 43 44 45 46 47 48 49 50
000
ASUS43 KOAX 270702
RWRNE

WEATHER ROUNDUP FOR NEBRASKA
NATIONAL WEATHER SERVICE OMAHA NE
200 AM CDT MON APR 27 2015

NOTES: SATELLITE DATA IS BEING USED TO AUGMENT CLOUD COVER ABOVE
       12000 FEET.
       "FAIR" INDICATES FEW OR NO CLOUDS BELOW 12,000 FEET WITH NO
       SIGNIFICANT WEATHER AND/OR OBSTRUCTIONS TO VISIBILITY.

  * THESE STATIONS DO NOT REPORT WEATHER SUCH AS RAIN...SNOW OR FOG.

NEZ001>004-019>022-054>056-270800-
NEBRASKA PANHANDLE

CITY           SKY/WX    TMP DP  RH WIND       PRES   REMARKS
SCOTTSBLUFF    CLOUDY    45 N/A N/A CALM      30.16R
ALLIANCE       CLOUDY    43  41  93 N3        30.14S
CHADRON        MOCLDY    42  39  89 SW3       30.16R
KIMBALL        LGT RAIN  40  40  99 SE6       30.12S
SIDNEY         CLOUDY    43  40  89 E3        30.14S
$$

NEZ057>060-069>072-079>082-270800-
SOUTHWEST NEBRASKA

CITY           SKY/WX    TMP DP  RH WIND       PRES   REMARKS
IMPERIAL       CLOUDY    46  41  82 NE8       30.12R
LEXINGTON      MOCLDY    39  36  89 CALM      30.13S
MCCOOK         CLOUDY    50  43  77 NE8       30.11S
OGALLALA       CLOUDY    46  43  91 CALM      30.14R
$$

NEZ005>010-023>029-035>040-094-270800-
NORTH CENTRAL NEBRASKA

CITY           SKY/WX    TMP DP  RH WIND       PRES   REMARKS
VALENTINE      PTCLDY    35  30  82 W5        30.15S WCI  31
AINSWORTH      CLEAR     40  31  68 W5        30.14S
BROKEN BOW     PTCLDY    36  32  85 CALM      30.13R
O`NEILL        CLEAR     39  33  78 N7        30.14R WCI  34
ORD            PTCLDY    36  32  85 NW5       30.11S WCI  32
$$

NEZ041-046>049-061>064-073>077-083>087-270800-
SOUTH CENTRAL NEBRASKA

CITY           SKY/WX    TMP DP  RH WIND       PRES   REMARKS
GRAND ISLAND   MOCLDY    40  35  83 N3        30.11R
AURORA         MOCLDY    39  36  89 N5        30.10R
HASTINGS       MOCLDY    42  36  79 CALM      30.10R
HEBRON         PTCLDY    42  35  76 CALM      30.09R
HOLDREGE       CLOUDY    39  36  90 N6        30.12S WCI  35
KEARNEY *      CLOUDY    39  34  81 NW5       30.12S
YORK           MOCLDY    39  37  93 N6        30.10S WCI  35
$$

NEZ011>018-030>034-042>045-270800-
NORTHEAST NEBRASKA

CITY           SKY/WX    TMP DP  RH WIND       PRES   REMARKS
NORFOLK        CLEAR     40  34  79 CALM      30.12S
ALBION         CLEAR     35  31  86 NW5       30.12S WCI  31
BLAIR          CLEAR     46  32  58 NE6       30.10S
COLUMBUS *     PTCLDY    41  32  70 CALM      30.13R
FREMONT        CLEAR     43  38  83 CALM      30.11S
TEKAMAH        CLEAR     40  34  79 N8        30.12S WCI  34
WAYNE          CLEAR     36  30  79 CALM      30.14S
$$

NEZ050>053-065>068-078-088>093-270800-
SOUTHEAST NEBRASKA

CITY           SKY/WX    TMP DP  RH WIND       PRES   REMARKS
LINCOLN        MOCLDY    41  36  82 N6        30.09F
OMAHA EPPLEY   PTCLDY    41  37  86 NW6       30.10F
BEATRICE       MOCLDY    45  35  69 NE5       30.08R
FALLS CITY     MOCLDY    46  32  58 E6        30.07R
NEBRASKA CITY  PTCLDY    43  31  63 CALM      30.08S
PLATTSMOUTH    PTCLDY    45  32  59 NE5       30.08F
$$

NEZ044-045-051>053-067-270800-
OMAHA AREA

CITY           SKY/WX    TMP DP  RH WIND       PRES   REMARKS
OMAHA EPPLEY   PTCLDY    41  37  86 NW6       30.10F
BLAIR          CLEAR     46  32  58 NE6       30.10S
FREMONT        CLEAR     43  38  83 CALM      30.11S
MILLARD        CLEAR     43  39  85 CALM      30.09F
PLATTSMOUTH    PTCLDY    45  32  59 NE5       30.08F
WAHOO          FAIR      40  35  82 N8        30.10F WCI  35
$$


USA.gov is the U.S. government's official web portal to all federal, state and local government web resources and services.